TimeCEST,TemperatureF,Dew PointF,Humidity,Sea Level PressureIn,VisibilityMPH,Wind Direction,Wind SpeedMPH,Gust SpeedMPH,PrecipitationIn,Events,Conditions,WindDirDegrees,DateUTC
12:15 AM,55.4,39.2,54,30.06,-9999.0,NNE,5.8,-,N/A,,Clear,20,2011-10-14 22:15:00
12:45 AM,53.6,37.4,54,30.06,-9999.0,NNE,6.9,-,N/A,,Clear,20,2011-10-14 22:45:00
1:15 AM,53.6,39.2,58,30.06,-9999.0,NNE,4.6,-,N/A,,Clear,20,2011-10-14 23:15:00
1:45 AM,53.6,39.2,58,30.06,-9999.0,NNE,5.8,-,N/A,,Clear,30,2011-10-14 23:45:00
2:15 AM,53.6,39.2,58,30.06,-9999.0,NNE,4.6,-,N/A,,Clear,30,2011-10-15 00:15:00
2:45 AM,51.8,39.2,62,30.06,-9999.0,NE,3.5,-,N/A,,Clear,40,2011-10-15 00:45:00
3:15 AM,51.8,39.2,62,30.06,-9999.0,NNE,4.6,-,N/A,,Clear,20,2011-10-15 01:15:00
3:45 AM,51.8,39.2,62,30.06,-9999.0,NE,5.8,-,N/A,,Clear,50,2011-10-15 01:45:00
4:15 AM,50.0,39.2,66,30.06,-9999.0,NNE,4.6,-,N/A,,Clear,20,2011-10-15 02:15:00
4:45 AM,50.0,39.2,66,30.06,-9999.0,NNE,5.8,-,N/A,,Clear,20,2011-10-15 02:45:00
5:15 AM,50.0,37.4,62,30.06,-9999.0,NNE,3.5,-,N/A,,Clear,30,2011-10-15 03:15:00
5:45 AM,51.8,37.4,58,30.06,-9999.0,NE,5.8,-,N/A,,Clear,40,2011-10-15 03:45:00
6:15 AM,50.0,39.2,66,30.06,-9999.0,NE,6.9,-,N/A,,Clear,50,2011-10-15 04:15:00
6:45 AM,50.0,37.4,62,30.06,-9999.0,North,4.6,-,N/A,,Clear,360,2011-10-15 04:45:00
7:15 AM,50.0,37.4,62,30.06,-9999.0,North,4.6,-,N/A,,Clear,360,2011-10-15 05:15:00
7:45 AM,50.0,37.4,62,30.06,-9999.0,NNE,3.5,-,N/A,,Clear,20,2011-10-15 05:45:00
8:15 AM,50.0,37.4,62,30.06,-9999.0,NNE,5.8,-,N/A,,Clear,20,2011-10-15 06:15:00
8:45 AM,51.8,39.2,62,30.06,-9999.0,NE,9.2,-,N/A,,Clear,50,2011-10-15 06:45:00
9:15 AM,53.6,39.2,58,30.09,-9999.0,NE,5.8,-,N/A,,Clear,40,2011-10-15 07:15:00
9:45 AM,55.4,37.4,51,30.09,-9999.0,NE,9.2,-,N/A,,Clear,40,2011-10-15 07:45:00
10:15 AM,59.0,39.2,48,30.09,-9999.0,North,9.2,-,N/A,,Clear,360,2011-10-15 08:15:00
10:45 AM,60.8,39.2,45,30.09,-9999.0,NE,10.4,-,N/A,,Clear,50,2011-10-15 08:45:00
11:15 AM,62.6,37.4,39,30.09,-9999.0,NE,6.9,-,N/A,,Clear,40,2011-10-15 09:15:00
11:45 AM,64.4,35.6,34,30.09,-9999.0,NE,8.1,-,N/A,,Clear,40,2011-10-15 09:45:00
12:15 PM,66.2,35.6,32,30.09,-9999.0,NNE,2.3,-,N/A,,Clear,20,2011-10-15 10:15:00
12:45 PM,66.2,35.6,32,30.09,-9999.0,WNW,1.2,-,N/A,,Clear,300,2011-10-15 10:45:00
1:15 PM,66.2,35.6,32,30.09,-9999.0,ENE,1.2,-,N/A,,Clear,70,2011-10-15 11:15:00
1:45 PM,68.0,35.6,30,30.09,-9999.0,SSE,2.3,-,N/A,,Clear,150,2011-10-15 11:45:00
2:15 PM,68.0,33.8,28,30.09,-9999.0,ENE,5.8,-,N/A,,Clear,60,2011-10-15 12:15:00
2:45 PM,69.8,32.0,25,30.09,-9999.0,NNE,2.3,-,N/A,,Clear,20,2011-10-15 12:45:00
3:15 PM,69.8,33.8,27,30.09,6.2,North,3.5,-,N/A,,Partly Cloudy,360,2011-10-15 13:15:00
3:45 PM,69.8,33.8,27,30.09,6.2,NW,2.3,-,N/A,,Partly Cloudy,310,2011-10-15 13:45:00
4:15 PM,69.8,32.0,25,30.09,-9999.0,SW,5.8,-,N/A,,Clear,220,2011-10-15 14:15:00
4:45 PM,68.0,30.2,24,30.09,-9999.0,SSW,9.2,-,N/A,,Clear,200,2011-10-15 14:45:00
5:15 PM,66.2,37.4,35,30.09,-9999.0,SW,6.9,-,N/A,,Clear,220,2011-10-15 15:15:00
5:45 PM,66.2,41.0,40,30.09,-9999.0,SW,15.0,-,N/A,,Clear,220,2011-10-15 15:45:00
6:15 PM,62.6,46.4,55,30.09,-9999.0,SW,5.8,-,N/A,,Clear,220,2011-10-15 16:15:00
6:45 PM,62.6,48.2,59,30.09,-9999.0,SW,3.5,-,N/A,,Clear,220,2011-10-15 16:45:00
7:15 PM,60.8,48.2,63,30.09,-9999.0,South,4.6,-,N/A,,Clear,190,2011-10-15 17:15:00
7:45 PM,59.0,46.4,63,30.09,-9999.0,SE,3.5,-,N/A,,Clear,130,2011-10-15 17:45:00
8:15 PM,57.2,42.8,59,30.09,-9999.0,ENE,6.9,-,N/A,,Clear,70,2011-10-15 18:15:00
8:45 PM,55.4,37.4,51,30.09,-9999.0,NE,4.6,-,N/A,,Clear,50,2011-10-15 18:45:00
9:15 PM,53.6,33.8,47,30.09,-9999.0,NE,3.5,-,N/A,,Clear,50,2011-10-15 19:15:00
9:45 PM,55.4,35.6,47,30.12,-9999.0,North,2.3,-,N/A,,Clear,360,2011-10-15 19:45:00
10:15 PM,53.6,37.4,54,30.12,-9999.0,North,1.2,-,N/A,,Clear,10,2011-10-15 20:15:00
10:45 PM,53.6,37.4,54,30.12,-9999.0,NNE,5.8,-,N/A,,Clear,20,2011-10-15 20:45:00
11:15 PM,53.6,37.4,54,30.12,-9999.0,North,5.8,-,N/A,,Clear,360,2011-10-15 21:15:00
11:45 PM,51.8,35.6,54,30.12,-9999.0,North,6.9,-,N/A,,Clear,360,2011-10-15 21:45:00